QPF
0.10 0.15 0.17 0.20 0.19 0.22 0.19 0.15 0.14 0.11 0.09 0.10 0.20 0.25 0.22 0.24 0.21 0.18 0.20 0.22 0.23 0.27 0.20 0.13 0.10 0.09 0.08 0.08 0.06 0.06 0.05 0.04 0.03 0.03 0.02 0.02 0.02 0.02 0.02 0.02 0.02 0.02 0.01
0.10 0.11 0.10 0.12 0.14 0.18 0.20 0.19 0.17 0.13 0.13 0.13 0.15 0.19 0.24 0.29 0.30 0.26 0.19 0.22 0.23 0.18 0.16 0.14 0.13 0.11 0.10 0.09 0.07 0.06 0.05 0.04 0.04 0.04 0.04 0.03 0.02 0.02 0.02 0.03 0.03 0.02 0.02
0.09 0.08 0.07 0.08 0.09 0.09 0.10 0.15 0.21 0.16 0.18 0.21 0.22 0.21 0.18 0.21 0.27 0.26 0.21 0.21 0.25 0.22 0.17 0.15 0.14 0.12 0.11 0.11 0.09 0.09 0.06 0.06 0.06 0.05 0.04 0.03 0.03 0.03 0.03 0.03 0.02 0.02 0.02
0.05 0.06 0.05 0.04 0.04 0.06 0.07 0.09 0.12 0.13 0.14 0.17 0.21 0.20 0.16 0.15 0.23 0.24 0.22 0.21 0.21 0.20 0.20 0.18 0.15 0.13 0.13 0.11 0.10 0.09 0.07 0.08 0.08 0.07 0.05 0.05 0.05 0.05 0.04 0.04 0.03 0.02 0.02
0.03 0.03 0.03 0.04 0.04 0.05 0.05 0.05 0.07 0.10 0.13 0.14 0.14 0.15 0.16 0.17 0.17 0.20 0.21 0.22 0.22 0.22 0.22 0.18 0.17 0.17 0.15 0.13 0.12 0.11 0.10 0.13 0.11 0.09 0.09 0.08 0.06 0.04 0.04 0.03 0.03 0.02 0.03
0.02 0.01 0.01 0.01 0.02 0.03 0.04 0.05 0.05 0.08 0.13 0.16 0.17 0.16 0.14 0.14 0.15 0.19 0.22 0.21 0.18 0.17 0.16 0.15 0.13 0.13 0.15 0.15 0.15 0.15 0.16 0.21 0.18 0.13 0.11 0.10 0.08 0.07 0.06 0.05 0.04 0.03 0.03
0.01 0.00 0.01 0.01 0.01 0.02 0.03 0.05 0.05 0.06 0.10 0.14 0.15 0.18 0.17 0.15 0.14 0.16 0.20 0.21 0.22 0.21 0.20 0.16 0.13 0.14 0.16 0.18 0.16 0.16 0.20 0.25 0.24 0.22 0.21 0.18 0.14 0.11 0.09 0.06 0.04 0.03 0.03
0.02 0.01 0.01 0.01 0.01 0.02 0.03 0.04 0.06 0.08 0.11 0.13 0.11 0.15 0.18 0.18 0.14 0.13 0.15 0.18 0.20 0.20 0.22 0.22 0.16 0.14 0.14 0.13 0.16 0.17 0.15 0.14 0.14 0.15 0.15 0.13 0.13 0.11 0.08 0.06 0.05 0.04 0.03
0.01 0.01 0.01 0.01 0.01 0.01 0.02 0.03 0.04 0.06 0.07 0.10 0.11 0.13 0.15 0.15 0.13 0.12 0.11 0.11 0.12 0.15 0.16 0.18 0.19 0.15 0.13 0.12 0.14 0.14 0.10 0.08 0.08 0.07 0.06 0.06 0.07 0.07 0.07 0.06 0.06 0.05 0.03
0.01 0.01 0.01 0.01 0.01 0.01 0.01 0.01 0.02 0.04 0.06 0.10 0.13 0.12 0.10 0.09 0.09 0.10 0.10 0.10 0.10 0.12 0.13 0.15 0.16 0.16 0.14 0.12 0.12 0.11 0.11 0.09 0.07 0.06 0.05 0.05 0.07 0.07 0.06 0.05 0.04 0.03 0.03
0.01 0.01 0.01 0.01 0.01 0.01 0.01 0.01 0.01 0.03 0.05 0.08 0.11 0.10 0.09 0.10 0.09 0.08 0.09 0.10 0.11 0.12 0.15 0.17 0.16 0.16 0.15 0.14 0.14 0.13 0.12 0.10 0.07 0.06 0.05 0.04 0.04 0.05 0.06 0.05 0.04 0.04 0.04
0.01 0.01 0.01 0.01 0.01 0.01 0.01 0.01 0.01 0.03 0.03 0.05 0.07 0.07 0.08 0.12 0.13 0.11 0.11 0.11 0.13 0.16 0.17 0.19 0.19 0.17 0.16 0.16 0.15 0.15 0.12 0.11 0.07 0.06 0.04 0.03 0.03 0.03 0.03 0.02 0.02 0.02 0.02
0.01 0.01 0.01 0.01 0.01 0.01 0.01 0.01 0.02 0.04 0.04 0.05 0.07 0.08 0.09 0.11 0.13 0.14 0.15 0.15 0.15 0.15 0.15 0.16 0.17 0.16 0.16 0.15 0.13 0.12 0.11 0.10 0.08 0.06 0.06 0.05 0.04 0.03 0.02 0.02 0.02 0.01 0.01
0.02 0.02 0.01 0.02 0.01 0.01 0.01 0.01 0.01 0.03 0.05 0.06 0.06 0.08 0.09 0.10 0.11 0.12 0.12 0.13 0.14 0.14 0.13 0.13 0.13 0.12 0.12 0.12 0.13 0.11 0.08 0.07 0.06 0.05 0.05 0.04 0.04 0.03 0.03 0.03 0.02 0.01 0.01
0.01 0.01 0.01 0.01 0.01 0.01 0.01 0.01 0.01 0.02 0.04 0.05 0.06 0.07 0.09 0.09 0.07 0.07 0.07 0.07 0.08 0.10 0.10 0.09 0.09 0.09 0.09 0.10 0.11 0.07 0.06 0.06 0.04 0.03 0.03 0.03 0.03 0.03 0.03 0.02 0.02 0.01 0.01
0.01 0.01 0.01 0.01 0.01 0.01 0.02 0.02 0.02 0.02 0.03 0.03 0.04 0.05 0.05 0.05 0.05 0.05 0.05 0.04 0.05 0.05 0.07 0.07 0.07 0.07 0.07 0.07 0.07 0.05 0.05 0.05 0.03 0.02 0.02 0.02 0.01 0.01 0.01 0.01 0.01 0.01 0.00
0.01 0.00 0.00 0.00 0.00 0.01 0.02 0.02 0.02 0.02 0.02 0.03 0.03 0.03 0.03 0.03 0.03 0.03 0.03 0.03 0.04 0.04 0.06 0.07 0.06 0.06 0.06 0.05 0.05 0.03 0.03 0.02 0.01 0.01 0.01 0.01 0.01 0.01 0.01 0.01 0.00 0.00 0.00
0.01 0.00 0.00 0.00 0.00 0.00 0.01 0.02 0.02 0.02 0.02 0.02 0.02 0.02 0.02 0.02 0.02 0.02 0.03 0.03 0.03 0.04 0.05 0.05 0.05 0.04 0.03 0.03 0.03 0.02 0.02 0.01 0.01 0.01 0.01 0.01 0.01 0.00 0.00 0.00 0.00 0.00 0.00
0.01 0.01 0.00 0.00 0.00 0.00 0.00 0.01 0.01 0.01 0.01 0.02 0.02 0.02 0.02 0.02 0.02 0.02 0.02 0.02 0.02 0.02 0.02 0.02 0.02 0.02 0.02 0.02 0.02 0.01 0.01 0.01 0.01 0.01 0.00 0.00 0.00 0.00 0.00 0.00 0.00 0.00 0.00
0.01 0.01 0.01 0.01 0.00 0.00 0.00 0.00 0.00 0.01 0.01 0.02 0.02 0.01 0.01 0.01 0.01 0.01 0.01 0.01 0.01 0.01 0.01 0.01 0.01 0.01 0.01 0.01 0.01 0.01 0.00 0.00 0.00 0.00 0.00 0.00 0.00 0.00 0.00 0.00 0.00 0.00 0.00
0.01 0.01 0.01 0.01 0.01 0.00 0.00 0.00 0.00 0.00 0.01 0.01 0.01 0.01 0.01 0.01 0.01 0.01 0.01 0.01 0.00 0.00 0.00 0.00 0.01 0.01 0.01 0.01 0.01 0.01 0.00 0.00 0.00 0.00 0.00 0.00 0.00 0.00 0.00 0.00 0.00 0.00 0.00
0.01 0.01 0.01 0.01 0.01 0.01 0.01 0.00 0.00 0.00 0.00 0.00 0.01 0.01 0.01 0.01 0.01 0.01 0.01 0.01 0.00 0.00 0.00 0.00 0.01 0.01 0.01 0.01 0.01 0.01 0.01 0.01 0.01 0.00 0.00 0.00 0.00 0.00 0.00 0.00 0.00 0.00 0.00
0.00 0.00 0.01 0.01 0.01 0.01 0.01 0.00 0.00 0.00 0.00 0.00 0.01 0.01 0.01 0.01 0.01 0.01 0.01 0.01 0.01 0.00 0.00 0.00 0.00 0.00 0.00 0.00 0.00 0.00 0.00 0.00 0.00 0.01 0.01 0.00 0.00 0.00 0.00 0.00 0.01 0.00 0.00
0.00 0.00 0.00 0.00 0.01 0.01 0.01 0.01 0.01 0.00 0.00 0.00 0.00 0.01 0.01 0.01 0.01 0.01 0.01 0.01 0.01 0.01 0.01 0.01 0.00 0.00 0.00 0.00 0.00 0.00 0.00 0.00 0.00 0.00 0.00 0.00 0.00 0.00 0.00 0.00 0.00 0.00 0.00
0.00 0.00 0.00 0.00 0.00 0.01 0.01 0.01 0.01 0.00 0.00 0.00 0.00 0.00 0.01 0.01 0.01 0.01 0.00 0.01 0.01 0.01 0.00 0.00 0.00 0.00 0.00 0.00 0.00 0.00 0.00 0.00 0.00 0.00 0.00 0.00 0.00 0.00 0.00 0.00 0.01 0.01 0.00
0.00 0.00 0.00 0.00 0.00 0.00 0.00 0.00 0.00 0.00 0.00 0.00 0.00 0.00 0.00 0.00 0.00 0.00 0.00 0.00 0.00 0.00 0.00 0.00 0.00 0.00 0.00 0.00 0.00 0.00 0.00 0.00 0.00 0.00 0.00 0.00 0.00 0.00 0.00 0.00 0.00 0.01 0.01
MSLP
1016.91 1017.05 1017.12 1017.14 1017.15 1017.18 1017.24 1017.30 1017.35 1017.36 1017.33 1017.24 1017.13 1017.02 1016.96 1016.95 1017.03 1017.18 1017.38 1017.60 1017.81 1018.01 1018.17 1018.33 1018.49 1018.69 1018.94 1019.23 1019.55 1019.89 1020.20 1020.48 1020.71 1020.91 1021.08 1021.25 1021.45 1021.69 1021.95 1022.24 1022.52 1022.76 1022.96
1016.77 1016.89 1016.95 1016.98 1017.02 1017.08 1017.16 1017.26 1017.32 1017.34 1017.30 1017.18 1017.03 1016.87 1016.74 1016.68 1016.70 1016.80 1016.97 1017.19 1017.42 1017.65 1017.86 1018.07 1018.29 1018.52 1018.79 1019.08 1019.40 1019.72 1020.03 1020.32 1020.57 1020.80 1021.02 1021.25 1021.51 1021.80 1022.11 1022.44 1022.75 1023.02 1023.25
1016.60 1016.70 1016.77 1016.83 1016.91 1017.03 1017.17 1017.31 1017.42 1017.45 1017.39 1017.25 1017.04 1016.81 1016.60 1016.45 1016.39 1016.43 1016.56 1016.75 1016.99 1017.25 1017.51 1017.76 1018.02 1018.29 1018.57 1018.88 1019.19 1019.51 1019.83 1020.13 1020.42 1020.70 1020.99 1021.29 1021.61 1021.95 1022.31 1022.67 1023.00 1023.30 1023.54
1016.44 1016.53 1016.60 1016.70 1016.84 1017.03 1017.25 1017.45 1017.60 1017.65 1017.58 1017.40 1017.14 1016.82 1016.52 1016.27 1016.12 1016.08 1016.16 1016.32 1016.55 1016.82 1017.10 1017.39 1017.68 1017.98 1018.27 1018.58 1018.90 1019.23 1019.57 1019.91 1020.25 1020.60 1020.97 1021.34 1021.73 1022.13 1022.53 1022.91 1023.26 1023.57 1023.82
1016.33 1016.40 1016.48 1016.62 1016.82 1017.08 1017.36 1017.62 1017.80 1017.87 1017.79 1017.58 1017.26 1016.87 1016.48 1016.15 1015.91 1015.80 1015.81 1015.93 1016.14 1016.40 1016.69 1016.99 1017.29 1017.59 1017.89 1018.20 1018.53 1018.88 1019.25 1019.64 1020.06 1020.50 1020.95 1021.41 1021.88 1022.33 1022.76 1023.16 1023.51 1023.82 1024.07
1016.31 1016.35 1016.44 1016.60 1016.84 1017.15 1017.48 1017.77 1017.98 1018.05 1017.96 1017.72 1017.36 1016.92 1016.48 1016.08 1015.78 1015.60 1015.56 1015.64 1015.82 1016.06 1016.33 1016.61 1016.89 1017.17 1017.46 1017.76 1018.09 1018.47 1018.88 1019.35 1019.85 1020.39 1020.94 1021.49 1022.03 1022.53 1022.99 1023.40 1023.74 1024.03 1024.28
1016.39 1016.40 1016.47 1016.64 1016.90 1017.22 1017.56 1017.87 1018.08 1018.15 1018.05 1017.79 1017.41 1016.96 1016.49 1016.06 1015.73 1015.53 1015.46 1015.51 1015.64 1015.84 1016.07 1016.31 1016.55 1016.79 1017.05 1017.33 1017.67 1018.06 1018.53 1019.06 1019.66 1020.29 1020.94 1021.58 1022.18 1022.73 1023.21 1023.61 1023.94 1024.21 1024.44
1016.60 1016.56 1016.60 1016.74 1016.98 1017.28 1017.60 1017.88 1018.07 1018.12 1018.02 1017.76 1017.39 1016.95 1016.51 1016.10 1015.79 1015.59 1015.51 1015.54 1015.65 1015.80 1015.98 1016.17 1016.35 1016.54 1016.75 1017.01 1017.33 1017.74 1018.25 1018.85 1019.52 1020.24 1020.97 1021.69 1022.34 1022.93 1023.41 1023.81 1024.12 1024.37 1024.59
1016.93 1016.84 1016.83 1016.92 1017.09 1017.34 1017.59 1017.82 1017.96 1017.98 1017.87 1017.63 1017.30 1016.91 1016.53 1016.19 1015.93 1015.77 1015.72 1015.75 1015.84 1015.96 1016.10 1016.23 1016.36 1016.49 1016.66 1016.88 1017.19 1017.61 1018.14 1018.77 1019.50 1020.28 1021.08 1021.84 1022.53 1023.13 1023.62 1024.01 1024.30 1024.53 1024.73
1017.35 1017.20 1017.13 1017.14 1017.24 1017.39 1017.55 1017.69 1017.77 1017.75 1017.63 1017.42 1017.14 1016.83 1016.53 1016.28 1016.11 1016.02 1016.02 1016.08 1016.18 1016.29 1016.41 1016.51 1016.60 1016.69 1016.83 1017.03 1017.32 1017.73 1018.26 1018.91 1019.66 1020.47 1021.28 1022.06 1022.77 1023.37 1023.85 1024.22 1024.50 1024.72 1024.91
1017.81 1017.61 1017.47 1017.40 1017.40 1017.44 1017.50 1017.54 1017.54 1017.47 1017.34 1017.15 1016.93 1016.70 1016.50 1016.36 1016.28 1016.28 1016.34 1016.45 1016.59 1016.73 1016.85 1016.96 1017.05 1017.14 1017.27 1017.46 1017.74 1018.14 1018.66 1019.29 1020.02 1020.81 1021.61 1022.38 1023.07 1023.65 1024.12 1024.48 1024.74 1024.95 1025.13
1018.28 1018.03 1017.83 1017.68 1017.57 1017.50 1017.44 1017.38 1017.29 1017.17 1017.02 1016.85 1016.68 1016.53 1016.42 1016.37 1016.39 1016.47 1016.61 1016.79 1016.99 1017.19 1017.37 1017.52 1017.66 1017.80 1017.96 1018.16 1018.45 1018.83 1019.32 1019.91 1020.59 1021.32 1022.07 1022.79 1023.43 1023.99 1024.43 1024.77 1025.03 1025.23 1025.41
1018.72 1018.43 1018.17 1017.94 1017.74 1017.57 1017.40 1017.24 1017.08 1016.90 1016.73 1016.57 1016.43 1016.33 1016.29 1016.31 1016.40 1016.56 1016.78 1017.03 1017.31 1017.60 1017.87 1018.13 1018.36 1018.59 1018.82 1019.07 1019.37 1019.74 1020.19 1020.72 1021.32 1021.97 1022.63 1023.26 1023.85 1024.35 1024.77 1025.09 1025.35 1025.55 1025.73
1019.09 1018.77 1018.47 1018.17 1017.90 1017.63 1017.38 1017.14 1016.91 1016.69 1016.49 1016.32 1016.20 1016.13 1016.12 1016.19 1016.32 1016.54 1016.81 1017.15 1017.52 1017.91 1018.31 1018.70 1019.07 1019.42 1019.75 1020.08 1020.42 1020.78 1021.18 1021.64 1022.14 1022.67 1023.23 1023.77 1024.27 1024.73 1025.11 1025.42 1025.67 1025.87 1026.05
1019.40 1019.06 1018.71 1018.37 1018.04 1017.71 1017.39 1017.09 1016.81 1016.55 1016.33 1016.15 1016.03 1015.96 1015.96 1016.04 1016.20 1016.44 1016.76 1017.16 1017.62 1018.13 1018.66 1019.21 1019.73 1020.23 1020.68 1021.09 1021.47 1021.83 1022.19 1022.56 1022.95 1023.37 1023.80 1024.24 1024.66 1025.05 1025.40 1025.70 1025.95 1026.16 1026.33
1019.66 1019.29 1018.92 1018.54 1018.17 1017.80 1017.44 1017.10 1016.79 1016.51 1016.28 1016.09 1015.96 1015.88 1015.88 1015.94 1016.09 1016.34 1016.68 1017.13 1017.67 1018.28 1018.94 1019.63 1020.31 1020.94 1021.51 1022.01 1022.43 1022.79 1023.10 1023.39 1023.68 1023.97 1024.29 1024.62 1024.96 1025.30 1025.61 1025.89 1026.14 1026.35 1026.52
1019.90 1019.51 1019.11 1018.71 1018.30 1017.91 1017.53 1017.18 1016.86 1016.59 1016.35 1016.17 1016.03 1015.94 1015.92 1015.96 1016.10 1016.33 1016.68 1017.15 1017.74 1018.42 1019.19 1019.98 1020.78 1021.52 1022.19 1022.75 1023.20 1023.55 1023.82 1024.04 1024.23 1024.42 1024.63 1024.87 1025.13 1025.41 1025.69 1025.96 1026.20 1026.41 1026.58
1020.16 1019.74 1019.32 1018.90 1018.48 1018.08 1017.70 1017.36 1017.05 1016.79 1016.57 1016.39 1016.26 1016.18 1016.14 1016.17 1016.28 1016.49 1016.83 1017.30 1017.90 1018.63 1019.44 1020.30 1021.16 1021.97 1022.69 1023.28 1023.75 1024.08 1024.30 1024.46 1024.57 1024.67 1024.80 1024.96 1025.16 1025.39 1025.63 1025.88 1026.11 1026.32 1026.48
1020.45 1020.02 1019.58 1019.15 1018.73 1018.33 1017.96 1017.63 1017.35 1017.11 1016.93 1016.78 1016.67 1016.59 1016.56 1016.58 1016.67 1016.86 1017.18 1017.63 1018.22 1018.93 1019.74 1020.61 1021.48 1022.29 1023.01 1023.60 1024.05 1024.35 1024.54 1024.64 1024.69 1024.73 1024.80 1024.90 1025.05 1025.24 1025.46 1025.68 1025.89 1026.07 1026.22
1020.81 1020.37 1019.93 1019.49 1019.07 1018.68 1018.33 1018.02 1017.76 1017.56 1017.41 1017.30 1017.22 1017.17 1017.15 1017.18 1017.27 1017.44 1017.73 1018.14 1018.68 1019.34 1020.10 1020.91 1021.73 1022.50 1023.17 1023.72 1024.13 1024.40 1024.55 1024.61 1024.63 1024.64 1024.67 1024.74 1024.86 1025.01 1025.19 1025.38 1025.55 1025.71 1025.84
1021.23 1020.80 1020.36 1019.94 1019.53 1019.14 1018.80 1018.52 1018.29 1018.12 1018.01 1017.93 1017.89 1017.88 1017.89 1017.93 1018.02 1018.18 1018.43 1018.79 1019.26 1019.84 1020.50 1021.22 1021.93 1022.61 1023.20 1023.68 1024.03 1024.26 1024.38 1024.43 1024.45 1024.45 1024.47 1024.53 1024.63 1024.75 1024.89 1025.04 1025.17 1025.28 1025.37
1021.70 1021.30 1020.89 1020.49 1020.09 1019.72 1019.40 1019.12 1018.92 1018.77 1018.68 1018.64 1018.64 1018.66 1018.70 1018.76 1018.86 1019.00 1019.22 1019.51 1019.90 1020.38 1020.92 1021.50 1022.09 1022.64 1023.13 1023.52 1023.81 1024.00 1024.12 1024.17 1024.20 1024.22 1024.26 1024.32 1024.41 1024.51 1024.62 1024.71 1024.79 1024.85 1024.88
1022.20 1021.86 1021.49 1021.12 1020.75 1020.40 1020.08 1019.82 1019.62 1019.48 1019.41 1019.39 1019.41 1019.46 1019.52 1019.60 1019.70 1019.83 1020.01 1020.25 1020.54 1020.91 1021.32 1021.76 1022.21 1022.63 1023.01 1023.31 1023.55 1023.71 1023.82 1023.89 1023.95 1024.01 1024.08 1024.16 1024.25 1024.33 1024.41 1024.46 1024.47 1024.47 1024.44
1022.71 1022.44 1022.14 1021.81 1021.47 1021.14 1020.84 1020.57 1020.37 1020.23 1020.16 1020.14 1020.17 1020.23 1020.31 1020.39 1020.49 1020.61 1020.75 1020.92 1021.14 1021.39 1021.68 1022.00 1022.31 1022.62 1022.89 1023.12 1023.30 1023.45 1023.57 1023.67 1023.76 1023.86 1023.97 1024.07 1024.17 1024.24 1024.29 1024.29 1024.25 1024.18 1024.09
1023.21 1023.02 1022.79 1022.52 1022.22 1021.91 1021.61 1021.35 1021.14 1020.99 1020.90 1020.87 1020.89 1020.95 1021.02 1021.10 1021.19 1021.29 1021.40 1021.52 1021.66 1021.83 1022.02 1022.22 1022.43 1022.64 1022.83 1023.00 1023.15 1023.28 1023.41 1023.53 1023.66 1023.80 1023.94 1024.06 1024.17 1024.23 1024.25 1024.21 1024.12 1024.00 1023.85
1023.68 1023.57 1023.41 1023.19 1022.93 1022.65 1022.36 1022.10 1021.88 1021.71 1021.60 1021.55 1021.55 1021.59 1021.65 1021.72 1021.80 1021.88 1021.95 1022.03 1022.13 1022.23 1022.35 1022.47 1022.60 1022.74 1022.87 1022.99 1023.12 1023.24 1023.37 1023.51 1023.66 1023.82 1023.97 1024.11 1024.21 1024.27 1024.26 1024.20 1024.07 1023.90 1023.71
Thickness
5724 5723 5722 5721 5721 5721 5720 5720 5719 5718 5718 5717 5717 5717 5717 5716 5716 5717 5718 5717 5717 5715 5715 5714 5713 5712 5711 5710 5709 5708 5707 5706 5705 5704 5702 5701 5700 5699 5698 5697 5696 5694 5693
5719 5718 5717 5716 5716 5716 5717 5717 5716 5715 5715 5713 5713 5713 5712 5712 5712 5712 5713 5713 5712 5712 5711 5710 5709 5709 5708 5707 5706 5705 5704 5703 5702 5701 5699 5698 5697 5696 5694 5693 5692 5690 5689
5713 5713 5712 5712 5711 5712 5712 5712 5711 5710 5710 5708 5708 5708 5708 5707 5707 5707 5708 5708 5707 5707 5706 5705 5705 5705 5704 5704 5703 5702 5701 5700 5698 5697 5695 5694 5693 5691 5689 5688 5687 5685 5684
5707 5708 5707 5707 5707 5707 5707 5706 5706 5704 5703 5702 5702 5702 5703 5702 5702 5702 5702 5703 5703 5702 5701 5701 5701 5700 5701 5700 5700 5699 5698 5696 5695 5693 5691 5689 5687 5686 5684 5682 5681 5679 5678
5701 5701 5701 5701 5701 5701 5701 5702 5700 5699 5697 5696 5696 5696 5696 5696 5696 5697 5697 5697 5697 5697 5697 5696 5696 5696 5696 5696 5695 5695 5693 5692 5690 5688 5686 5684 5682 5680 5678 5676 5674 5672 5671
5694 5694 5694 5694 5694 5694 5693 5694 5694 5693 5691 5690 5690 5689 5689 5689 5690 5690 5690 5690 5690 5690 5690 5690 5691 5691 5691 5690 5689 5689 5688 5687 5685 5683 5680 5678 5675 5673 5671 5669 5667 5665 5663
5686 5686 5685 5686 5687 5687 5687 5687 5687 5686 5685 5685 5683 5680 5680 5680 5682 5682 5682 5682 5682 5683 5684 5684 5684 5684 5684 5684 5683 5682 5681 5680 5678 5676 5673 5671 5668 5665 5663 5660 5658 5656 5654
5677 5678 5677 5678 5678 5679 5680 5680 5680 5679 5679 5679 5677 5673 5672 5671 5671 5672 5673 5674 5674 5674 5675 5676 5676 5676 5676 5676 5676 5674 5673 5672 5669 5667 5664 5661 5659 5656 5653 5651 5649 5647 5645
5668 5669 5669 5669 5670 5671 5671 5672 5673 5673 5672 5673 5673 5671 5668 5664 5661 5661 5662 5663 5664 5665 5665 5666 5667 5667 5667 5667 5666 5665 5664 5662 5659 5657 5654 5651 5648 5646 5643 5641 5639 5636 5634
5659 5660 5660 5660 5661 5662 5663 5664 5665 5666 5667 5667 5667 5667 5666 5664 5659 5654 5651 5652 5653 5654 5655 5656 5656 5656 5656 5657 5656 5655 5653 5651 5649 5646 5644 5641 5638 5636 5633 5631 5628 5625 5623
5650 5650 5651 5652 5653 5654 5655 5656 5657 5659 5660 5661 5661 5660 5659 5658 5656 5652 5645 5643 5642 5641 5643 5644 5644 5644 5645 5645 5644 5643 5641 5639 5637 5635 5633 5630 5628 5625 5622 5620 5617 5614 5612
5639 5640 5642 5643 5644 5645 5647 5648 5649 5651 5652 5654 5655 5654 5653 5652 5649 5647 5641 5636 5632 5629 5630 5631 5632 5632 5632 5633 5632 5630 5629 5627 5625 5623 5621 5619 5617 5614 5610 5608 5605 5603 5600
5628 5630 5632 5634 5635 5637 5638 5640 5642 5643 5644 5646 5646 5647 5646 5646 5645 5642 5638 5630 5625 5620 5619 5619 5619 5620 5620 5620 5619 5618 5616 5615 5613 5611 5609 5606 5604 5601 5598 5596 5593 5591 5589
5619 5621 5622 5624 5626 5628 5630 5632 5633 5634 5636 5637 5637 5638 5638 5637 5637 5636 5632 5626 5619 5613 5610 5607 5607 5608 5608 5607 5606 5605 5604 5603 5601 5599 5596 5594 5592 5589 5587 5584 5582 5579 5577
5609 5611 5612 5614 5616 5618 5620 5621 5623 5625 5626 5627 5627 5628 5628 5628 5628 5627 5625 5623 5618 5610 5603 5599 5597 5596 5596 5595 5594 5593 5592 5591 5589 5587 5585 5583 5581 5578 5576 5573 5571 5569 5566
5599 5600 5601 5603 5605 5607 5609 5611 5612 5614 5616 5616 5617 5618 5618 5618 5617 5616 5615 5613 5612 5607 5598 5592 5590 5588 5586 5585 5583 5582 5581 5580 5578 5576 5574 5572 5570 5568 5566 5563 5561 5559 5556
5588 5589 5590 5592 5593 5595 5597 5599 5600 5602 5604 5605 5606 5607 5607 5608 5607 5605 5604 5603 5601 5599 5592 5584 5581 5579 5577 5575 5574 5572 5572 5570 5569 5568 5565 5563 5561 5559 5556 5554 5552 5549 5547
5577 5578 5579 5580 5582 5583 5585 5587 5588 5590 5592 5593 5594 5596 5596 5597 5596 5595 5594 5592 5590 5589 5586 5578 5572 5569 5567 5566 5565 5564 5562 5562 5561 5559 5557 5554 5552 5550 5548 5546 5543 5541 5539
5566 5566 5568 5568 5570 5572 5573 5575 5576 5578 5579 5580 5582 5583 5584 5585 5585 5584 5583 5582 5580 5578 5575 5570 5564 5561 5559 5558 5556 5555 5554 5553 5552 5551 5549 5547 5545 5542 5540 5538 5536 5534 5531
5554 5555 5556 5557 5559 5560 5562 5564 5565 5566 5567 5568 5570 5571 5573 5574 5573 5573 5573 5571 5569 5566 5563 5560 5556 5553 5551 5550 5548 5546 5545 5544 5544 5544 5542 5541 5539 5537 5535 5533 5530 5528 5525
5544 5545 5546 5547 5549 5550 5551 5553 5554 5555 5555 5556 5558 5559 5561 5563 5564 5564 5563 5560 5559 5556 5553 5550 5547 5545 5543 5541 5540 5539 5537 5536 5536 5536 5535 5535 5533 5532 5530 5528 5526 5524 5521
5534 5535 5535 5536 5537 5539 5541 5543 5544 5544 5544 5545 5546 5548 5550 5551 5552 5553 5553 5552 5551 5549 5545 5542 5539 5537 5536 5535 5534 5533 5531 5529 5529 5531 5529 5528 5528 5527 5526 5524 5523 5521 5518
5526 5526 5526 5527 5528 5529 5532 5534 5534 5534 5534 5534 5536 5537 5540 5540 5542 5542 5543 5543 5542 5541 5541 5537 5534 5532 5531 5531 5530 5528 5526 5525 5524 5526 5524 5523 5523 5522 5523 5521 5520 5518 5515
5518 5518 5518 5519 5520 5522 5524 5525 5526 5526 5525 5526 5527 5528 5529 5530 5532 5533 5534 5533 5532 5532 5532 5531 5530 5528 5528 5527 5527 5525 5524 5522 5521 5521 5520 5518 5518 5518 5520 5519 5518 5516 5514
5513 5513 5513 5513 5514 5514 5517 5518 5519 5519 5518 5518 5520 5521 5522 5523 5524 5526 5525 5524 5524 5524 5525 5525 5525 5525 5524 5524 5524 5522 5519 5517 5514 5515 5516 5514 5513 5512 5514 5515 5516 5514 5512
5508 5509 5508 5508 5509 5509 5511 5513 5514 5513 5512 5512 5513 5514 5516 5517 5518 5519 5519 5518 5517 5517 5518 5520 5520 5521 5521 5521 5520 5519 5516 5512 5510 5509 5512 5510 5509 5508 5507 5510 5512 5511 5510